QPF
0.01 0.01 0.02 0.02 0.02 0.01 0.01 0.00 0.00 0.01 0.01 0.00 0.00 0.00 0.00 0.01 0.01 0.01 0.01 0.00 0.00 0.00 0.00 0.00 0.01 0.01 0.01 0.01 0.02 0.02 0.01 0.01 0.01 0.01 0.01 0.01 0.02 0.01
0.01 0.02 0.02 0.01 0.01 0.01 0.01 0.01 0.00 0.01 0.01 0.00 0.00 0.00 0.00 0.00 0.01 0.01 0.01 0.01 0.00 0.00 0.00 0.00 0.01 0.01 0.01 0.02 0.02 0.02 0.02 0.01 0.01 0.01 0.01 0.01 0.01 0.01
0.01 0.01 0.01 0.01 0.01 0.01 0.01 0.01 0.01 0.00 0.00 0.00 0.00 0.00 0.00 0.00 0.00 0.00 0.00 0.00 0.01 0.01 0.01 0.01 0.01 0.01 0.01 0.02 0.02 0.02 0.01 0.01 0.01 0.01 0.00 0.00 0.00 0.01
0.01 0.01 0.01 0.01 0.01 0.01 0.01 0.01 0.01 0.01 0.00 0.00 0.00 0.01 0.01 0.00 0.01 0.00 0.00 0.00 0.00 0.01 0.01 0.01 0.01 0.01 0.01 0.01 0.01 0.01 0.01 0.01 0.00 0.00 0.00 0.00 0.00 0.00
0.01 0.01 0.01 0.01 0.01 0.01 0.01 0.01 0.01 0.01 0.01 0.00 0.01 0.02 0.01 0.00 0.01 0.01 0.00 0.00 0.00 0.01 0.01 0.01 0.01 0.01 0.00 0.01 0.01 0.01 0.02 0.01 0.01 0.00 0.00 0.00 0.00 0.00
0.01 0.01 0.01 0.01 0.01 0.01 0.01 0.01 0.01 0.01 0.01 0.00 0.01 0.02 0.02 0.01 0.01 0.01 0.01 0.01 0.01 0.01 0.01 0.02 0.02 0.01 0.00 0.01 0.01 0.01 0.02 0.03 0.01 0.00 0.00 0.00 0.00 0.00
0.01 0.01 0.01 0.01 0.01 0.01 0.01 0.01 0.01 0.01 0.01 0.01 0.00 0.00 0.01 0.01 0.01 0.00 0.00 0.00 0.00 0.01 0.01 0.02 0.02 0.01 0.00 0.00 0.00 0.00 0.01 0.01 0.02 0.01 0.01 0.00 0.00 0.00
0.00 0.01 0.01 0.01 0.01 0.01 0.01 0.01 0.01 0.01 0.01 0.01 0.00 0.00 0.00 0.00 0.00 0.00 0.01 0.01 0.01 0.00 0.00 0.01 0.01 0.00 0.00 0.00 0.00 0.00 0.00 0.01 0.01 0.01 0.00 0.00 0.00 0.00
0.00 0.01 0.01 0.01 0.01 0.01 0.01 0.01 0.01 0.01 0.02 0.01 0.01 0.00 0.00 0.00 0.01 0.01 0.01 0.01 0.01 0.01 0.01 0.01 0.01 0.01 0.01 0.00 0.00 0.00 0.00 0.01 0.01 0.01 0.01 0.00 0.00 0.00
0.00 0.01 0.01 0.01 0.01 0.01 0.01 0.01 0.01 0.01 0.01 0.01 0.01 0.01 0.01 0.01 0.01 0.01 0.01 0.00 0.00 0.00 0.01 0.01 0.01 0.01 0.01 0.01 0.00 0.00 0.00 0.00 0.00 0.00 0.01 0.00 0.00 0.00
0.00 0.00 0.00 0.00 0.00 0.01 0.01 0.01 0.00 0.01 0.01 0.01 0.01 0.01 0.01 0.01 0.00 0.00 0.00 0.00 0.00 0.00 0.01 0.01 0.01 0.01 0.01 0.01 0.01 0.01 0.01 0.01 0.00 0.00 0.00 0.00 0.00 0.00
0.00 0.00 0.00 0.00 0.00 0.01 0.01 0.01 0.00 0.00 0.00 0.01 0.01 0.01 0.01 0.01 0.00 0.00 0.00 0.00 0.00 0.00 0.00 0.01 0.01 0.01 0.01 0.01 0.01 0.01 0.01 0.01 0.01 0.00 0.00 0.00 0.00 0.00
0.01 0.00 0.01 0.01 0.01 0.01 0.01 0.01 0.01 0.01 0.00 0.00 0.00 0.01 0.01 0.01 0.00 0.00 0.00 0.00 0.00 0.00 0.00 0.00 0.01 0.01 0.01 0.01 0.01 0.01 0.01 0.01 0.01 0.01 0.00 0.00 0.00 0.00
0.01 0.01 0.01 0.02 0.02 0.02 0.02 0.01 0.01 0.01 0.01 0.01 0.01 0.01 0.01 0.00 0.00 0.00 0.00 0.00 0.00 0.00 0.00 0.00 0.01 0.01 0.01 0.01 0.01 0.01 0.01 0.01 0.01 0.01 0.01 0.01 0.00 0.00
0.01 0.02 0.03 0.03 0.03 0.03 0.03 0.03 0.02 0.01 0.01 0.01 0.01 0.01 0.01 0.00 0.00 0.00 0.00 0.00 0.00 0.00 0.00 0.00 0.00 0.01 0.01 0.01 0.01 0.01 0.01 0.01 0.01 0.01 0.01 0.01 0.00 0.00
0.01 0.02 0.02 0.02 0.02 0.03 0.03 0.03 0.02 0.02 0.02 0.02 0.01 0.01 0.01 0.00 0.00 0.00 0.00 0.00 0.00 0.00 0.00 0.00 0.00 0.00 0.01 0.01 0.01 0.01 0.01 0.01 0.02 0.01 0.01 0.01 0.01 0.00
0.01 0.01 0.01 0.01 0.01 0.02 0.02 0.03 0.02 0.02 0.03 0.02 0.02 0.01 0.01 0.01 0.01 0.01 0.01 0.01 0.01 0.00 0.00 0.00 0.00 0.01 0.01 0.01 0.01 0.01 0.01 0.01 0.01 0.02 0.02 0.01 0.01 0.00
0.01 0.01 0.01 0.01 0.01 0.02 0.02 0.03 0.03 0.03 0.03 0.03 0.02 0.02 0.01 0.01 0.01 0.01 0.01 0.01 0.01 0.01 0.01 0.01 0.01 0.01 0.02 0.02 0.02 0.01 0.01 0.01 0.01 0.02 0.03 0.02 0.01 0.00
0.02 0.01 0.01 0.01 0.01 0.02 0.02 0.03 0.03 0.04 0.04 0.03 0.03 0.03 0.02 0.02 0.02 0.02 0.02 0.02 0.02 0.02 0.01 0.01 0.01 0.02 0.02 0.02 0.01 0.01 0.01 0.01 0.02 0.02 0.03 0.03 0.02 0.01
0.02 0.02 0.02 0.02 0.02 0.02 0.03 0.03 0.03 0.03 0.04 0.05 0.05 0.04 0.03 0.03 0.02 0.02 0.02 0.02 0.02 0.02 0.02 0.01 0.02 0.03 0.02 0.02 0.02 0.02 0.02 0.02 0.03 0.03 0.03 0.02 0.02 0.02
0.02 0.02 0.02 0.02 0.01 0.01 0.02 0.02 0.02 0.02 0.02 0.02 0.04 0.05 0.05 0.04 0.03 0.03 0.03 0.03 0.03 0.02 0.02 0.02 0.02 0.03 0.02 0.02 0.02 0.02 0.03 0.04 0.04 0.04 0.03 0.03 0.02 0.03
0.04 0.03 0.03 0.02 0.01 0.01 0.01 0.02 0.02 0.02 0.02 0.02 0.02 0.03 0.04 0.04 0.04 0.03 0.03 0.03 0.03 0.03 0.03 0.02 0.02 0.02 0.02 0.02 0.02 0.03 0.04 0.05 0.04 0.04 0.04 0.04 0.03 0.02
0.02 0.02 0.02 0.02 0.01 0.01 0.01 0.02 0.02 0.02 0.02 0.02 0.02 0.02 0.03 0.04 0.04 0.03 0.03 0.03 0.02 0.02 0.02 0.02 0.02 0.02 0.02 0.03 0.04 0.04 0.04 0.03 0.03 0.03 0.03 0.03 0.03 0.02
MSLP
1021.32 1021.58 1021.91 1022.28 1022.68 1023.08 1023.44 1023.76 1024.01 1024.19 1024.30 1024.35 1024.34 1024.28 1024.17 1024.03 1023.86 1023.68 1023.51 1023.35 1023.22 1023.14 1023.11 1023.11 1023.14 1023.19 1023.25 1023.29 1023.32 1023.34 1023.34 1023.34 1023.36 1023.39 1023.45 1023.53 1023.62 1023.72
1021.50 1021.73 1022.00 1022.31 1022.63 1022.95 1023.26 1023.54 1023.78 1023.98 1024.14 1024.25 1024.31 1024.31 1024.27 1024.18 1024.05 1023.89 1023.73 1023.57 1023.44 1023.35 1023.31 1023.31 1023.34 1023.40 1023.46 1023.51 1023.55 1023.56 1023.57 1023.57 1023.57 1023.59 1023.63 1023.68 1023.75 1023.82
1021.67 1021.87 1022.09 1022.33 1022.58 1022.83 1023.08 1023.32 1023.55 1023.76 1023.96 1024.12 1024.25 1024.32 1024.34 1024.29 1024.19 1024.05 1023.88 1023.71 1023.57 1023.45 1023.39 1023.37 1023.39 1023.44 1023.50 1023.56 1023.60 1023.63 1023.63 1023.64 1023.64 1023.65 1023.67 1023.71 1023.76 1023.80
1021.80 1021.98 1022.15 1022.33 1022.51 1022.70 1022.90 1023.10 1023.32 1023.55 1023.77 1023.99 1024.17 1024.30 1024.37 1024.36 1024.29 1024.16 1023.98 1023.79 1023.62 1023.47 1023.37 1023.31 1023.31 1023.33 1023.38 1023.43 1023.47 1023.49 1023.50 1023.50 1023.51 1023.51 1023.53 1023.56 1023.59 1023.62
1021.87 1022.02 1022.16 1022.29 1022.42 1022.55 1022.70 1022.88 1023.08 1023.31 1023.56 1023.81 1024.03 1024.21 1024.33 1024.36 1024.30 1024.18 1023.99 1023.78 1023.57 1023.38 1023.23 1023.13 1023.08 1023.06 1023.08 1023.10 1023.12 1023.14 1023.14 1023.14 1023.14 1023.15 1023.16 1023.19 1023.22 1023.25
1021.84 1021.98 1022.09 1022.18 1022.27 1022.36 1022.47 1022.61 1022.79 1023.02 1023.28 1023.54 1023.80 1024.01 1024.15 1024.21 1024.18 1024.06 1023.87 1023.64 1023.40 1023.16 1022.96 1022.81 1022.70 1022.63 1022.60 1022.58 1022.57 1022.56 1022.54 1022.54 1022.53 1022.54 1022.56 1022.59 1022.63 1022.67
1021.73 1021.85 1021.94 1022.00 1022.06 1022.11 1022.18 1022.29 1022.44 1022.64 1022.89 1023.15 1023.41 1023.64 1023.80 1023.88 1023.86 1023.75 1023.57 1023.33 1023.06 1022.80 1022.55 1022.35 1022.18 1022.05 1021.96 1021.88 1021.82 1021.77 1021.74 1021.71 1021.70 1021.70 1021.73 1021.77 1021.83 1021.88
1021.54 1021.65 1021.72 1021.76 1021.78 1021.80 1021.83 1021.89 1022.00 1022.17 1022.38 1022.62 1022.86 1023.08 1023.24 1023.33 1023.33 1023.24 1023.07 1022.84 1022.57 1022.28 1022.01 1021.76 1021.54 1021.35 1021.19 1021.05 1020.94 1020.84 1020.77 1020.72 1020.69 1020.69 1020.72 1020.78 1020.85 1020.92
1021.28 1021.38 1021.44 1021.46 1021.46 1021.45 1021.44 1021.45 1021.51 1021.61 1021.77 1021.96 1022.16 1022.35 1022.51 1022.60 1022.61 1022.54 1022.40 1022.19 1021.93 1021.65 1021.36 1021.08 1020.82 1020.58 1020.36 1020.17 1019.99 1019.85 1019.73 1019.64 1019.60 1019.59 1019.62 1019.68 1019.76 1019.84
1020.97 1021.06 1021.12 1021.14 1021.12 1021.08 1021.03 1021.00 1020.99 1021.03 1021.11 1021.23 1021.38 1021.54 1021.67 1021.75 1021.78 1021.74 1021.62 1021.45 1021.22 1020.96 1020.67 1020.38 1020.10 1019.82 1019.55 1019.30 1019.07 1018.87 1018.71 1018.59 1018.51 1018.48 1018.50 1018.55 1018.63 1018.72
1020.62 1020.72 1020.79 1020.82 1020.80 1020.74 1020.66 1020.58 1020.51 1020.48 1020.49 1020.54 1020.63 1020.73 1020.83 1020.91 1020.94 1020.92 1020.85 1020.71 1020.52 1020.29 1020.03 1019.75 1019.45 1019.14 1018.84 1018.55 1018.27 1018.02 1017.81 1017.64 1017.52 1017.46 1017.45 1017.48 1017.54 1017.61
1020.26 1020.38 1020.48 1020.52 1020.51 1020.45 1020.35 1020.24 1020.13 1020.04 1019.99 1019.98 1020.00 1020.06 1020.12 1020.18 1020.22 1020.22 1020.18 1020.08 1019.94 1019.74 1019.50 1019.23 1018.94 1018.62 1018.29 1017.96 1017.64 1017.35 1017.09 1016.87 1016.71 1016.60 1016.54 1016.53 1016.54 1016.57
1019.92 1020.07 1020.20 1020.27 1020.29 1020.24 1020.15 1020.02 1019.89 1019.76 1019.66 1019.60 1019.58 1019.59 1019.63 1019.67 1019.71 1019.72 1019.70 1019.64 1019.52 1019.36 1019.14 1018.89 1018.60 1018.27 1017.93 1017.58 1017.22 1016.89 1016.58 1016.32 1016.10 1015.93 1015.82 1015.74 1015.69 1015.65
1019.61 1019.81 1019.97 1020.09 1020.14 1020.12 1020.05 1019.94 1019.80 1019.66 1019.54 1019.45 1019.40 1019.39 1019.40 1019.43 1019.46 1019.47 1019.46 1019.41 1019.31 1019.17 1018.97 1018.73 1018.44 1018.11 1017.76 1017.39 1017.02 1016.65 1016.30 1015.98 1015.71 1015.47 1015.28 1015.13 1015.00 1014.88
1019.38 1019.61 1019.82 1019.98 1020.08 1020.10 1020.07 1019.98 1019.87 1019.75 1019.63 1019.54 1019.47 1019.44 1019.44 1019.46 1019.47 1019.48 1019.46 1019.40 1019.31 1019.16 1018.97 1018.72 1018.44 1018.11 1017.75 1017.37 1016.98 1016.58 1016.20 1015.84 1015.51 1015.21 1014.94 1014.70 1014.47 1014.27
1019.26 1019.52 1019.76 1019.96 1020.10 1020.18 1020.19 1020.15 1020.08 1019.99 1019.90 1019.82 1019.76 1019.73 1019.72 1019.71 1019.71 1019.69 1019.65 1019.57 1019.45 1019.29 1019.08 1018.83 1018.54 1018.21 1017.85 1017.46 1017.06 1016.65 1016.24 1015.84 1015.45 1015.09 1014.74 1014.41 1014.10 1013.80
1019.26 1019.54 1019.81 1020.04 1020.22 1020.34 1020.40 1020.41 1020.39 1020.35 1020.30 1020.25 1020.21 1020.18 1020.16 1020.14 1020.10 1020.05 1019.96 1019.85 1019.69 1019.49 1019.26 1018.99 1018.68 1018.34 1017.98 1017.60 1017.19 1016.77 1016.34 1015.91 1015.48 1015.05 1014.63 1014.22 1013.83 1013.44
1019.41 1019.71 1019.99 1020.24 1020.44 1020.59 1020.70 1020.76 1020.78 1020.79 1020.78 1020.76 1020.74 1020.72 1020.69 1020.64 1020.57 1020.47 1020.33 1020.15 1019.94 1019.70 1019.43 1019.12 1018.80 1018.45 1018.08 1017.70 1017.29 1016.86 1016.42 1015.96 1015.49 1015.02 1014.54 1014.06 1013.59 1013.13
1019.70 1020.00 1020.29 1020.54 1020.76 1020.93 1021.06 1021.16 1021.22 1021.27 1021.29 1021.30 1021.30 1021.28 1021.23 1021.14 1021.02 1020.87 1020.66 1020.43 1020.15 1019.85 1019.52 1019.18 1018.83 1018.47 1018.09 1017.70 1017.29 1016.86 1016.40 1015.92 1015.42 1014.90 1014.37 1013.83 1013.30 1012.78
1020.12 1020.41 1020.69 1020.94 1021.15 1021.33 1021.48 1021.59 1021.69 1021.75 1021.80 1021.83 1021.82 1021.79 1021.71 1021.59 1021.42 1021.19 1020.92 1020.61 1020.26 1019.89 1019.51 1019.13 1018.74 1018.36 1017.96 1017.56 1017.14 1016.70 1016.22 1015.72 1015.18 1014.62 1014.05 1013.46 1012.87 1012.30
1020.60 1020.90 1021.16 1021.40 1021.61 1021.78 1021.92 1022.04 1022.14 1022.22 1022.27 1022.29 1022.28 1022.22 1022.10 1021.93 1021.70 1021.40 1021.06 1020.67 1020.25 1019.82 1019.38 1018.94 1018.52 1018.10 1017.68 1017.26 1016.82 1016.35 1015.86 1015.32 1014.75 1014.14 1013.51 1012.88 1012.24 1011.62
1021.11 1021.41 1021.66 1021.89 1022.07 1022.23 1022.36 1022.47 1022.55 1022.62 1022.66 1022.66 1022.62 1022.53 1022.37 1022.14 1021.84 1021.48 1021.06 1020.60 1020.12 1019.62 1019.12 1018.64 1018.17 1017.71 1017.26 1016.81 1016.34 1015.84 1015.31 1014.73 1014.11 1013.45 1012.78 1012.08 1011.39 1010.73
1021.58 1021.88 1022.13 1022.34 1022.50 1022.63 1022.74 1022.83 1022.89 1022.94 1022.95 1022.92 1022.85 1022.71 1022.50 1022.22 1021.86 1021.43 1020.95 1020.43 1019.88 1019.33 1018.78 1018.25 1017.74 1017.24 1016.75 1016.26 1015.75 1015.21 1014.63 1014.00 1013.33 1012.62 1011.88 1011.13 1010.38 1009.66
Thickness
5665 5664 5662 5661 5660 5659 5656 5654 5647 5639 5636 5638 5638 5639 5639 5638 5637 5637 5636 5636 5636 5635 5635 5634 5633 5632 5631 5630 5628 5627 5626 5624 5623 5621 5620 5618 5618 5617
5661 5659 5658 5656 5655 5654 5653 5650 5648 5643 5636 5636 5635 5636 5635 5634 5633 5633 5632 5631 5631 5630 5629 5628 5627 5626 5625 5624 5622 5620 5619 5617 5615 5614 5612 5611 5610 5609
5656 5655 5653 5653 5651 5649 5648 5646 5644 5642 5636 5633 5632 5632 5630 5630 5629 5628 5627 5627 5626 5625 5625 5623 5622 5621 5619 5618 5616 5614 5612 5610 5608 5607 5605 5604 5602 5601
5652 5650 5649 5648 5646 5645 5643 5641 5640 5638 5635 5630 5628 5627 5626 5625 5624 5623 5623 5622 5621 5621 5619 5618 5617 5616 5614 5613 5611 5608 5606 5604 5602 5600 5598 5597 5595 5593
5648 5646 5645 5643 5641 5640 5639 5637 5635 5634 5631 5627 5624 5623 5621 5620 5619 5618 5617 5616 5616 5615 5614 5613 5612 5610 5609 5608 5605 5603 5600 5598 5596 5594 5592 5589 5587 5585
5644 5643 5641 5640 5638 5636 5635 5633 5631 5628 5625 5622 5619 5617 5616 5615 5613 5611 5610 5610 5610 5610 5609 5608 5607 5605 5604 5602 5600 5598 5595 5593 5590 5588 5585 5582 5580 5578
5639 5638 5638 5637 5636 5634 5632 5629 5627 5622 5619 5616 5614 5612 5610 5608 5608 5607 5605 5604 5604 5604 5603 5603 5601 5600 5598 5597 5595 5593 5590 5587 5584 5582 5579 5576 5574 5572
5633 5632 5632 5632 5631 5630 5629 5627 5625 5620 5615 5613 5610 5608 5607 5606 5604 5603 5600 5598 5597 5599 5597 5596 5595 5593 5593 5591 5590 5587 5585 5582 5579 5577 5574 5571 5568 5566
5628 5627 5627 5626 5625 5624 5623 5622 5620 5618 5617 5613 5609 5608 5606 5605 5602 5599 5596 5595 5594 5594 5591 5590 5589 5587 5588 5586 5584 5582 5580 5577 5574 5572 5569 5566 5564 5561
5624 5623 5621 5620 5619 5618 5617 5615 5613 5612 5611 5610 5609 5607 5606 5604 5601 5599 5595 5591 5590 5588 5586 5583 5583 5582 5582 5581 5579 5577 5575 5572 5570 5567 5564 5562 5559 5555
5619 5618 5617 5615 5615 5614 5611 5609 5606 5606 5606 5605 5604 5603 5602 5600 5597 5592 5588 5584 5582 5582 5580 5578 5577 5576 5576 5575 5574 5572 5570 5567 5565 5562 5559 5556 5553 5550
5614 5613 5613 5612 5610 5609 5606 5604 5601 5600 5600 5599 5598 5597 5595 5594 5592 5589 5586 5580 5577 5575 5575 5572 5571 5568 5568 5569 5568 5566 5563 5561 5559 5556 5553 5550 5547 5544
5609 5608 5608 5608 5606 5604 5602 5600 5599 5597 5594 5592 5590 5589 5588 5586 5585 5583 5581 5578 5574 5572 5571 5567 5564 5561 5560 5560 5560 5559 5557 5554 5552 5550 5547 5544 5541 5537
5605 5604 5604 5603 5601 5599 5597 5595 5593 5590 5587 5585 5583 5581 5580 5579 5578 5576 5574 5573 5571 5569 5567 5564 5560 5556 5553 5551 5550 5551 5550 5547 5545 5543 5541 5538 5534 5530
5602 5600 5599 5597 5595 5593 5592 5590 5587 5584 5581 5578 5577 5576 5575 5573 5571 5569 5567 5565 5564 5562 5560 5559 5556 5552 5549 5546 5543 5542 5541 5540 5538 5536 5534 5531 5527 5524
5595 5594 5592 5590 5588 5586 5584 5582 5579 5577 5575 5573 5572 5570 5568 5566 5563 5562 5559 5557 5554 5554 5553 5552 5550 5547 5543 5541 5538 5535 5533 5532 5531 5529 5526 5523 5520 5516
5588 5585 5583 5581 5579 5577 5575 5573 5572 5569 5568 5566 5564 5562 5561 5559 5557 5555 5552 5550 5547 5546 5545 5544 5542 5540 5539 5535 5532 5530 5528 5526 5524 5521 5517 5515 5513 5510
5581 5578 5576 5575 5573 5572 5569 5567 5565 5563 5562 5560 5558 5556 5555 5552 5550 5548 5546 5543 5541 5540 5539 5537 5534 5531 5529 5528 5528 5525 5522 5520 5517 5514 5509 5506 5504 5503
5574 5573 5571 5570 5568 5566 5564 5562 5560 5559 5557 5554 5552 5550 5549 5546 5544 5541 5539 5536 5535 5533 5532 5529 5527 5524 5521 5522 5523 5520 5516 5514 5510 5506 5502 5499 5496 5495
5569 5567 5566 5565 5563 5560 5558 5557 5555 5552 5550 5548 5546 5544 5542 5540 5538 5536 5533 5531 5529 5527 5524 5522 5520 5518 5516 5515 5514 5513 5510 5507 5503 5499 5496 5492 5489 5486
5563 5561 5560 5559 5557 5555 5553 5551 5549 5547 5544 5542 5540 5538 5536 5534 5532 5530 5527 5526 5523 5520 5518 5517 5516 5513 5510 5506 5503 5503 5502 5499 5496 5492 5488 5483 5479 5475
5558 5557 5555 5554 5552 5550 5548 5545 5543 5540 5538 5536 5534 5532 5530 5528 5526 5524 5521 5518 5516 5514 5513 5510 5507 5504 5500 5498 5497 5495 5493 5491 5488 5484 5479 5475 5469 5465
5554 5552 5550 5549 5547 5545 5543 5540 5537 5535 5533 5530 5528 5526 5524 5522 5520 5517 5515 5512 5509 5507 5504 5501 5498 5495 5493 5491 5488 5486 5484 5481 5478 5474 5471 5466 5461 5457